Regional Weather Roundup
Issued by NWS Grand Forks, ND

Home | Current Version | Previous Version | Graphics & Text | Print | Product List | Glossary On
Versions: 1 2 3 4 5 6 7 8 9 10 11 12 13 14 15 16 17 18 19 20 21 22 23 24 25 26 27 28 29 30 31 32 33 34 35 36 37 38 39 40 41 42 43 44 45 46 47 48 49 50
000
ASUS43 KFGF 300910
RWRFGF
PRAIRIE TO PINES  WEATHER ROUNDUP
NATIONAL WEATHER SERVICE EASTERN NORTH DAKOTA/GRAND FORKS ND
400 AM CDT THU OCT 30 2014

 **SATELLITE DATA USED TO AUGMENT SKY COVER AT AUTOMATED STATIONS**
 *****  WEATHER ACROSS EASTERN NORTH DAKOTA  *****

CITY           SKY/WX    TMP DP  RH WIND       PRES   REMARKS
GRAND FORKS    CLOUDY    37  34  89 NE9       30.03R
GRAND FRKS AFB CLOUDY    37  35  95 NE9       30.04R
GRAND FRKS NWS   N/A     36 N/A N/A NE12        N/A
DEVILS LAKE    CLEAR     30  21  69 NE7       30.03R WCI  23
FARGO          LGT RAIN  40  37  89 SE5       30.00R FOG
WAHPETON ARPT  CLOUDY    37  34  87 SE7       29.99S
$$

 ***** WEATHER ACROSS CENTRAL AND WESTERN NORTH DAKOTA  *****

CITY           SKY/WX    TMP DP  RH WIND       PRES   REMARKS
BISMARCK       CLEAR     37  35  92 NW8       30.06R
MINOT          CLEAR     29  26  89 NW9       30.12R WCI  20
JAMESTOWN      CLEAR     36  34  92 NW8       29.98R
MINOT AFB      CLEAR     30  29  99 N12       30.12R WCI  20
GARRISON         N/A     32  30  92 NW12      30.09R WCI  23
WILLISTON      CLOUDY    37  33  85 N12       30.18R
DICKINSON      CLEAR     33  31  92 W8        30.11R
HETTINGER      CLEAR     34  31  88 NW10      30.13R
$$

 *****  OTHER AIRPORT OBSERVATIONS IN OUR AREA  *****

CITY           SKY/WX    TMP DP  RH WIND       PRES   REMARKS
WALHALLA       FAIR      28  28 100 NW9       30.10R WCI  20
GRAFTON AIRPOR FAIR      30  28  93 N8        30.06R WCI  23
VALLEY CITY AR PTSUNNY   36  36 100 CALM      29.97R
CANDO          FAIR      27  25  93 N10       30.08R WCI  17
CAVALIER APRT  FAIR      28  27  93 N7        30.08S WCI  21
GWINNER        PTSUNNY   39  39 100 CALM      29.98S
ROLLA          FAIR      25  25 100 N12       30.11R WCI  14
 ***** THE ABOVE OBSERVATIONS ARE NON NWS ARE NOT QUALITY
       CONTROLLED AND MAY MIS-REPORT RAIN FOR SNOW...
$$

  *****  WEATHER ACROSS NORTHERN MINNESOTA  *****

CITY           SKY/WX    TMP DP  RH WIND       PRES   REMARKS
FLAG ISLAND    CLOUDY    36  34  93 NW13      30.05R
WARROAD        CLOUDY    34  28  80 NW3       30.07R
ROSEAU         MOCLDY    32  27  80 CALM      30.06S
HALLOCK        PTCLDY    32  30  93 NE6       30.07R
THF RVR FALLS  CLOUDY    36  32  87 E7        30.03S
BAUDETTE       CLOUDY    34  31  88 CALM      30.05S
WASKISH        CLOUDY    34  32  93 CALM      30.04F
CROOKSTON      MIX PCPN  37  36  93 E7        30.03S
$$
  *****  WEATHER ACROSS CENTRAL AND WEST MINNESOTA  *****

CITY           SKY/WX    TMP DP  RH WIND       PRES   REMARKS
FOSSTON        CLOUDY    34  32  93 CALM      30.02S
BEMIDJI        CLOUDY    34  31  89 CALM      30.02S
PARK RAPIDS    CLOUDY    35  33  92 SE5       30.01S
ELBOW LAKE     CLOUDY    38  36  92 SE8       29.99F
WADENA         CLOUDY    36  34  93 CALM      30.01R
DETROIT LAKES  PTCLDY    36  34  93 SE3       30.00F
MOORHEAD       CLOUDY    39  39 100 CALM      30.01R
FERGUS FALLS   CLOUDY    39  36  87 S6        30.01S
MORRIS MN      NOT AVBL
STAPLES        CLOUDY    36  32  87 CALM      30.02F
$$
  *****  WEATHER ELSEWHERE ACROSS MINNESOTA  *****

CITY           SKY/WX    TMP DP  RH WIND       PRES   REMARKS
DULUTH         CLOUDY    36  32  85 SW5       30.03F
INTRNTL FALLS  CLOUDY    34  33  96 CALM      30.03S
ELY            CLOUDY    34  34 100 SW3       30.02S
CLOQUET        CLOUDY    36  32  87 CALM      30.04S
WHEATON        MOCLDY    36  34  93 SE7       30.01R
BRAINERD       LGT RAIN  35  32  88 CALM      30.03F
HIBBING        CLOUDY    35  32  88 CALM      30.04R
ALEXANDRIA     CLOUDY    38  34  85 SE6       30.01F
SAINT CLOUD    CLOUDY    38  34  85 E3        30.04F
MINNEAPOLIS    CLOUDY    38  32  79 E3        30.05F
$$

  *****  WEATHER ACROSS SOUTH DAKOTA  *****

CITY           SKY/WX    TMP DP  RH WIND       PRES   REMARKS
SIOUX FALLS    CLEAR     44  32  62 S6        29.96F
BROOKINGS      NOT AVBL
WATERTOWN      CLOUDY    43  34  70 CALM      29.97R
HURON          CLEAR     39  30  70 NW8       29.98R
SISSETON         N/A     38  38 100 S7        29.98S
ABERDEEN       PTCLDY    38  34  85 CALM      29.98S
MITCHELL       CLEAR     41  33  73 W8        29.99R
PIERRE         CLEAR     48  39  71 NW16      30.04R
MOBRIDGE       CLEAR     42  37  82 NW10      30.02R
RAPID CITY     CLEAR     42  32  67 NW12      30.14S
$$

  *****  SOME WEATHER IN NEARBY STATES *****

CITY           SKY/WX    TMP DP  RH WIND       PRES   REMARKS
GLASGOW MT     CLEAR     29  27  92 NE7       30.22R WCI  22
GREAT FALLS MT CLEAR     38  33  82 S10       30.22R
CHEYENNE WY    CLOUDY    42  24  49 NW9       30.29R
SCOTTSBLUFF NE CLEAR     35  28  75 NW8       30.24R
OMAHA NE       MOCLDY    47  32  56 S9        30.01F
DES MOINES IA  CLOUDY    44  34  67 SE6       30.06F
DAVENPORT IA   CLEAR     33  28  81 SE3       30.12F
CHICAGO IL     PTCLDY    36  31  82 CALM      30.13S
EAU CLAIRE WI  CLOUDY    35  32  88 CALM      30.06F
LA CROSSE WI   MOCLDY    37  33  85 SE5       30.08F
$$

  *****  SOME NATIONAL WEATHER *****

CITY           SKY/WX    TMP DP  RH WIND       PRES   REMARKS
LA GUARDIA NY  PTCLDY    52  46  80 NW8       29.94S
RALEIGH NC     PTCLDY    53  46  77 E6        30.01R
ATLANTA GA     CLEAR     48  44  86 NW10      30.04R
NEW ORLEANS LA PTCLDY    66  47  50 NE16      30.06S
OKLAHOMA CITY  CLEAR     48  38  68 S6        30.10S
ALBUQUERQUE NM PTCLDY    53  14  21 N10       30.27S
SALT LAKE CITY CLEAR     42  30  62 S6        30.26F
LOS ANGELES CA MOCLDY    66  64  93 CALM      29.99F
BOISE ID       CLOUDY    52  41  66 S3        30.17F
SEATTLE WA     CLOUDY    54  49  83 E3        30.00F
$$

*** WEATHER ACROSS MANITOBA...SASKATCHEWAN AND ONTARIO ***
                ***ONTARIO***

CITY           SKY/WX    TMP DP  RH WIND       PRES   REMARKS
GERALDTON      PTCLDY    27  27 100 W3        30.01S
THUNDER BAY    LGT RAIN  37  36  93 W2        30.03F
SIOUX LOOKOUT  NOT AVBL
TORONTO        MOCLDY    41  36  81 W7        30.02S
BIG TROUT LK   FLURRIES  27  23  86 NW6       29.99S WCI  20
PICKLE LAKE    NOT AVBL
DRYDEN         CLOUDY    34  34 100 NW3       30.02R
KENORA         CLOUDY    34  32  93 N5        30.04S
$$
                *** MANITOBA***

CITY           SKY/WX    TMP DP  RH WIND       PRES   REMARKS
BRANDON        CLOUDY    32  28  86 N10       30.17R WCI  24
DAUPHIN        CLOUDY    30  28  93 N15       30.23R WCI  19
ISLAND LAKE    FLURRIES  27  21  80 N10       30.10R WCI  17
PILOT MOUND    NOT AVBL
THE PAS        CLOUDY    34  23  64 NW14      30.27R WCI  24
THOMPSON       MOCLDY    21  14  73 N10G20    30.20R WCI  10
WINNIPEG       CLOUDY    34  32  93 NW5       30.12R
LYNN LAKE      CLOUDY    19  16  86 N8        30.30R WCI   9
CHURCHILL      FLURRIES  25  23  93 NW18G25   30.16R WCI  11
GILLAM         LGT SNOW  25  21  86 N14       30.11R VSB 3/4 WCI  13
$$
                ***SASKATCHEWAN***

CITY           SKY/WX    TMP DP  RH WIND       PRES   REMARKS
ESTEVAN        CLOUDY    36  32  87 N6        30.17R
KINDERSLEY     CLOUDY    32  28  86 NE9       30.26R WCI  24
LLOYDMINSTER   NOT AVBL
PRINCE ALBERT  CLOUDY    30  23  74 E10       30.34R WCI  21
REGINA         CLOUDY    34  30  86 N8        30.24R
YORKTON        CLOUDY    30  28  93 N14G20    30.24R WCI  20
N. BATTLEFORD  CLOUDY    34  30  86 E8        30.33R
LA RONGE       CLOUDY    27  21  80 NW5       30.37R WCI  21
SASKATOON      CLOUDY    30  28  93 NE12      30.32R WCI  21
SWIFT CURRENT  CLOUDY    32  30  93 NE6       30.22R FOG
$$
NOTE: THESE ARE AUTOMATED STATIONS WITH LIMITED QUALITY CONTROL
      "FAIR" INDICATES FEW OR NO CLOUDS BELOW 12,000 FEET WITH NO
      SIGNIFICANT WEATHER AND/OR OBSTRUCTIONS TO VISIBILITY.
      SKY/WX - SKY CONDITION AND SIGNIFICANT WEATHER.
      TMP - AIR TEMPERATURE.    DP   - DEWPOINT TEMPERATURE.
      RH  - RELATIVE HUMIDITY.  PRES - PRESSURE.
      HX  - HEAT INDEX.         WCI  - WIND CHILL INDEX.
$



USA.gov is the U.S. government's official web portal to all federal, state and local government web resources and services.